User: anonymous   Login
Location: Newark
(25.4297°S, 49.2719°W)
Time: 08:15:55
(UTC+00:00)
Language:

A-11 Canister half - Orbit

View from above orbital plane
View from above orbital plane
View from above satellite
View from above satellite

Ground track
Ground track

The orbit data is extracted from the following two-line orbital elements,

1    51U 60009C   19320.87277470 -.00000081 +00000-0 +30658-4 0  9994
2    51 047.2132 288.1802 0107482 249.4445 109.4784 12.18274796638052
Epoch (UTC): 16 November 2019 20:56:47
Eccentricity: 0.0107482
inclination: 47.2132°
perigee height: 1514 km
apogee height: 1686 km
right ascension of ascending node: 288.1802°
argument of perigee: 249.4445°
revolutions per day: 12.18274796
mean anomaly at epoch: 109.4784°
orbit number at epoch: 63805

The dashed part of the orbit path shows where the satellite is in the earth's shadow,  

DLR